Tracking 28799 objects as of 18-Apr-2024
HD Live streaming from Space Station
objects crossing your sky now

DELTA 1 DEB

Track DELTA 1 DEB now!
10-day predictions


NORAD ID: 21372
Int'l Code: 1975-052CS
Perigee: 1,094.8 km
Apogee: 1,187.5 km
Inclination: 100.3 °
Period: 108.0 minutes
Semi major axis: 7512 km
RCS: 0.088 m2 (small)
Launch date: June 12, 1975
Source: United States (US)
Launch site: AIR FORCE WESTERN TEST RANGE (AFWTR)

Note: This is SATELLITE DEBRIS
Your satellite tracking list
Your tracking list is empty




NASA's NSSDC Master Catalog

Two Line Element Set (TLE):
1 21372U 75052CS  24108.66061020  .00000153  00000-0  39872-3 0  9991
2 21372 100.2710   5.0392 0061668   8.0677  46.6470 13.33387954600797
Source of the keplerian elements: AFSPC